WAT3630 SAWC-SAWH

Flight info

Callsign WAT3630
Flight time 0h 55m
Altitude 35000
Route DEVIS2D DEVIS UW52 GAL UW42 GRA DCT DABLI DABLI1Q
Aircraft A21N/M-SDE3FGHIRWY/LB1

Departure

Time 2026-04-25 21:50
Airport El Calafate - Commander Armando Tola International Airport (SAWC)

Arrival

Time 2026-04-25 22:46
Airport Ushuaia - Malvinas Argentinas International Airport (SAWH)
Time Latitude Longitude Altitude Speed Heading
2026-04-25 21:33 -50.28336 -72.05306 654 ft 0 kts 231°
2026-04-25 21:44 -50.28335 -72.05305 654 ft 0 kts 231°
2026-04-25 21:45 -50.28335 -72.05304 654 ft 0 kts 231°
2026-04-25 21:46 -50.28336 -72.05307 654 ft 1 kts 232°
2026-04-25 21:46 -50.28341 -72.05338 655 ft 4 kts 276°
2026-04-25 21:46 -50.28300 -72.05376 654 ft 10 kts 10°
2026-04-25 21:46 -50.28254 -72.05284 653 ft 12 kts 81°
2026-04-25 21:47 -50.28239 -72.05155 652 ft 10 kts 62°
2026-04-25 21:47 -50.28180 -72.05125 651 ft 11 kts
2026-04-25 21:47 -50.28083 -72.05077 650 ft 14 kts 24°
2026-04-25 21:47 -50.28011 -72.05003 650 ft 12 kts 60°
2026-04-25 21:48 -50.27985 -72.04822 649 ft 24 kts 85°
2026-04-25 21:48 -50.27977 -72.04534 647 ft 26 kts 89°
2026-04-25 21:48 -50.27964 -72.04258 646 ft 25 kts 87°
2026-04-25 21:48 -50.27938 -72.03992 644 ft 24 kts 79°
2026-04-25 21:49 -50.27946 -72.03735 640 ft 17 kts 110°
2026-04-25 21:49 -50.27948 -72.03610 637 ft 7 kts 346°
2026-04-25 21:49 -50.27926 -72.03681 639 ft 8 kts 269°
2026-04-25 21:49 -50.27957 -72.04134 645 ft 79 kts 263°
2026-04-25 21:50 -50.28027 -72.05359 653 ft 143 kts 264°
2026-04-25 21:50 -50.28131 -72.07126 835 ft 178 kts 260°
2026-04-25 21:50 -50.28257 -72.09019 1566 ft 176 kts 257°
2026-04-25 21:50 -50.28418 -72.10879 2372 ft 176 kts 256°
2026-04-25 21:51 -50.28615 -72.12781 3076 ft 183 kts 256°
2026-04-25 21:51 -50.28787 -72.14819 3624 ft 198 kts 261°
2026-04-25 21:51 -50.28884 -72.17047 4121 ft 217 kts 263°
2026-04-25 21:51 -50.28970 -72.19526 4545 ft 241 kts 263°
2026-04-25 21:52 -50.29068 -72.22216 5168 ft 254 kts 259°
2026-04-25 21:52 -50.29726 -72.24669 6095 ft 246 kts 225°
2026-04-25 21:52 -50.31154 -72.25981 7024 ft 245 kts 194°
2026-04-25 21:52 -50.32841 -72.26093 7858 ft 251 kts 173°
2026-04-25 21:53 -50.34477 -72.25111 8666 ft 261 kts 150°
2026-04-25 21:53 -50.35739 -72.23048 9521 ft 272 kts 128°
2026-04-25 21:53 -50.36729 -72.20576 10412 ft 271 kts 128°
2026-04-25 21:53 -50.37782 -72.18063 10934 ft 284 kts 129°
2026-04-25 21:54 -50.38899 -72.15425 11305 ft 301 kts 129°
2026-04-25 21:54 -50.40087 -72.12612 11666 ft 319 kts 128°
2026-04-25 21:54 -50.41338 -72.09628 11980 ft 336 kts 128°
2026-04-25 21:54 -50.42649 -72.06473 12517 ft 346 kts 128°
2026-04-25 21:55 -50.43943 -72.03342 13300 ft 348 kts 128°
2026-04-25 21:55 -50.45274 -72.00121 14029 ft 351 kts 128°
2026-04-25 21:55 -50.46590 -71.96929 14701 ft 354 kts 128°
2026-04-25 21:55 -50.47930 -71.93668 15407 ft 357 kts 128°
2026-04-25 21:56 -50.49280 -71.90382 16091 ft 359 kts 128°
2026-04-25 21:56 -50.50167 -71.88221 16540 ft 360 kts 128°
2026-04-25 21:56 -50.51991 -71.83781 17459 ft 362 kts 128°
2026-04-25 21:56 -50.53359 -71.80444 18068 ft 365 kts 128°
2026-04-25 21:57 -50.54718 -71.77117 18682 ft 367 kts 129°
2026-04-25 21:57 -50.56104 -71.73728 19311 ft 369 kts 128°
2026-04-25 21:57 -50.57486 -71.70342 19936 ft 369 kts 129°
2026-04-25 21:57 -50.58859 -71.66963 20504 ft 371 kts 129°
2026-04-25 21:58 -50.60257 -71.63529 21023 ft 373 kts 130°
2026-04-25 21:58 -50.61660 -71.60081 21597 ft 373 kts 130°
2026-04-25 21:58 -50.63049 -71.56658 22158 ft 373 kts 130°
2026-04-25 21:58 -50.64451 -71.53203 22649 ft 375 kts 130°
2026-04-25 21:59 -50.65847 -71.49757 23155 ft 376 kts 130°
2026-04-25 21:59 -50.67254 -71.46272 23651 ft 377 kts 131°
2026-04-25 21:59 -50.68646 -71.42824 24051 ft 379 kts 131°
2026-04-25 22:00 -50.71491 -71.35783 24928 ft 381 kts 131°
2026-04-25 22:00 -50.72920 -71.32227 25387 ft 381 kts 130°
2026-04-25 22:00 -50.74334 -71.28709 25657 ft 385 kts 130°
2026-04-25 22:00 -50.75783 -71.25105 25986 ft 387 kts 131°
2026-04-25 22:01 -50.77208 -71.21539 26277 ft 390 kts 130°
2026-04-25 22:01 -50.78669 -71.17902 26628 ft 391 kts 130°
2026-04-25 22:01 -50.80110 -71.14294 26972 ft 392 kts 130°
2026-04-25 22:01 -50.81082 -71.11852 27239 ft 391 kts 131°
2026-04-25 22:02 -50.82987 -71.07056 27765 ft 389 kts 131°
2026-04-25 22:02 -50.84432 -71.03421 28158 ft 388 kts 131°
2026-04-25 22:02 -50.85851 -70.99851 28578 ft 387 kts 131°
2026-04-25 22:02 -50.87292 -70.96224 28917 ft 387 kts 131°
2026-04-25 22:03 -50.88712 -70.92635 29228 ft 386 kts 131°
2026-04-25 22:03 -50.90136 -70.89032 29540 ft 385 kts 132°
2026-04-25 22:03 -50.91553 -70.85442 29863 ft 383 kts 131°
2026-04-25 22:03 -50.92954 -70.81887 30171 ft 383 kts 132°
2026-04-25 22:04 -50.94360 -70.78323 30455 ft 382 kts 132°
2026-04-25 22:04 -50.95750 -70.74784 30740 ft 381 kts 131°
2026-04-25 22:04 -50.97153 -70.71202 30997 ft 380 kts 132°
2026-04-25 22:04 -50.98546 -70.67662 31182 ft 382 kts 132°
2026-04-25 22:05 -50.99951 -70.64073 31356 ft 384 kts 132°
2026-04-25 22:05 -51.01361 -70.60468 31584 ft 384 kts 132°
2026-04-25 22:05 -51.02758 -70.56883 31807 ft 384 kts 131°
2026-04-25 22:05 -51.04171 -70.53271 32019 ft 384 kts 132°
2026-04-25 22:06 -51.05625 -70.49776 32185 ft 382 kts 135°
2026-04-25 22:06 -51.07203 -70.46362 32345 ft 381 kts 136°
2026-04-25 22:06 -51.08799 -70.43060 32509 ft 382 kts 137°
2026-04-25 22:06 -51.10434 -70.39703 32653 ft 384 kts 137°
2026-04-25 22:07 -51.12088 -70.36299 32878 ft 383 kts 136°
2026-04-25 22:07 -51.13177 -70.34053 33012 ft 383 kts 136°
2026-04-25 22:07 -51.15346 -70.29578 33178 ft 387 kts 136°
2026-04-25 22:07 -51.16998 -70.26161 33324 ft 389 kts 136°
2026-04-25 22:08 -51.18654 -70.22740 33476 ft 390 kts 136°
2026-04-25 22:08 -51.20294 -70.19344 33627 ft 392 kts 136°
2026-04-25 22:08 -51.21955 -70.15894 33750 ft 394 kts 136°
2026-04-25 22:08 -51.23631 -70.12414 33882 ft 396 kts 135°
2026-04-25 22:09 -51.25302 -70.08934 34062 ft 397 kts 135°
2026-04-25 22:09 -51.26967 -70.05462 34216 ft 398 kts 135°
2026-04-25 22:09 -51.28652 -70.01948 34378 ft 399 kts 135°
2026-04-25 22:09 -51.30333 -69.98435 34485 ft 401 kts 135°
2026-04-25 22:10 -51.32030 -69.94881 34596 ft 403 kts 135°
2026-04-25 22:10 -51.33734 -69.91305 34731 ft 405 kts 135°
2026-04-25 22:10 -51.35425 -69.87756 34864 ft 406 kts 135°
2026-04-25 22:10 -51.37141 -69.84151 34875 ft 407 kts 135°
2026-04-25 22:11 -51.40574 -69.76915 34894 ft 408 kts 135°
2026-04-25 22:11 -51.43987 -69.69703 34888 ft 409 kts 135°
2026-04-25 22:12 -51.47411 -69.62444 34884 ft 411 kts 135°
2026-04-25 22:12 -51.50284 -69.56340 34884 ft 411 kts 134°
2026-04-25 22:13 -51.54277 -69.47820 34866 ft 410 kts 134°
2026-04-25 22:13 -51.57884 -69.40736 34872 ft 406 kts 140°
2026-04-25 22:14 -51.62019 -69.34669 34866 ft 400 kts 147°
2026-04-25 22:14 -51.66622 -69.29694 34868 ft 396 kts 155°
2026-04-25 22:15 -51.71532 -69.25859 34868 ft 394 kts 160°
2026-04-25 22:16 -51.79072 -69.20563 34880 ft 394 kts 160°
2026-04-25 22:16 -51.84099 -69.17039 34865 ft 393 kts 160°
2026-04-25 22:17 -51.89116 -69.13517 34871 ft 393 kts 160°
2026-04-25 22:17 -51.94120 -69.09992 34869 ft 392 kts 160°
2026-04-25 22:18 -51.99147 -69.06443 34861 ft 393 kts 160°
2026-04-25 22:18 -52.04136 -69.02911 34866 ft 393 kts 160°
2026-04-25 22:19 -52.09159 -68.99349 34859 ft 393 kts 160°
2026-04-25 22:19 -52.14157 -68.95793 34856 ft 394 kts 160°
2026-04-25 22:20 -52.19156 -68.92230 34866 ft 392 kts 160°
2026-04-25 22:20 -52.24140 -68.88667 34863 ft 393 kts 160°
2026-04-25 22:21 -52.29169 -68.85062 34854 ft 394 kts 160°
2026-04-25 22:21 -52.45721 -68.73148 34859 ft 395 kts 160°
2026-04-25 22:22 -52.99532 -68.33702 34864 ft 394 kts 159°
2026-04-25 22:22 -53.51553 -67.94596 34828 ft 396 kts 159°
2026-04-25 22:22 -53.54047 -67.92681 34679 ft 396 kts 159°
2026-04-25 22:23 -53.56555 -67.90749 34169 ft 399 kts 159°
2026-04-25 22:23 -53.59072 -67.88820 33548 ft 401 kts 159°
2026-04-25 22:23 -53.61597 -67.86883 33000 ft 402 kts 159°
2026-04-25 22:23 -53.64136 -67.84927 32440 ft 403 kts 159°
2026-04-25 22:24 -53.66658 -67.82985 31899 ft 403 kts 159°
2026-04-25 22:24 -53.69207 -67.81020 31345 ft 403 kts 158°
2026-04-25 22:24 -53.71736 -67.79071 30765 ft 402 kts 159°
2026-04-25 22:24 -53.74268 -67.77161 30101 ft 402 kts 161°
2026-04-25 22:25 -53.76889 -67.75664 29360 ft 403 kts 167°
2026-04-25 22:25 -53.79636 -67.74649 28506 ft 406 kts 172°
2026-04-25 22:25 -53.82445 -67.74120 27496 ft 411 kts 176°
2026-04-25 22:25 -53.85288 -67.73778 26455 ft 416 kts 177°
2026-04-25 22:26 -53.88151 -67.73469 25473 ft 419 kts 177°
2026-04-25 22:26 -53.91031 -67.73167 24812 ft 414 kts 178°
2026-04-25 22:26 -53.93903 -67.72864 24119 ft 410 kts 177°
2026-04-25 22:26 -53.96723 -67.72565 23441 ft 406 kts 178°
2026-04-25 22:27 -53.99504 -67.72270 22768 ft 402 kts 177°
2026-04-25 22:27 -54.02251 -67.71976 22102 ft 399 kts 178°
2026-04-25 22:27 -54.05031 -67.71677 21408 ft 395 kts 178°
2026-04-25 22:27 -54.07731 -67.71389 20762 ft 392 kts 178°
2026-04-25 22:28 -54.10445 -67.71098 20059 ft 389 kts 178°
2026-04-25 22:28 -54.13124 -67.70808 19376 ft 387 kts 177°
2026-04-25 22:28 -54.15768 -67.70524 18772 ft 383 kts 177°
2026-04-25 22:28 -54.18395 -67.70240 18241 ft 377 kts 177°
2026-04-25 22:29 -54.21016 -67.69953 17688 ft 373 kts 177°
2026-04-25 22:29 -54.23563 -67.69679 17182 ft 368 kts 177°
2026-04-25 22:29 -54.26098 -67.69401 16670 ft 363 kts 178°
2026-04-25 22:30 -54.31039 -67.68861 15689 ft 354 kts 178°
2026-04-25 22:30 -54.33494 -67.68594 15188 ft 351 kts 178°
2026-04-25 22:30 -54.35901 -67.68330 14808 ft 343 kts 178°
2026-04-25 22:30 -54.37448 -67.68158 14723 ft 334 kts 178°
2026-04-25 22:31 -54.40469 -67.67825 14483 ft 318 kts 178°
2026-04-25 22:31 -54.42627 -67.67588 14333 ft 305 kts 178°
2026-04-25 22:31 -54.44688 -67.67361 14200 ft 293 kts 178°
2026-04-25 22:31 -54.46694 -67.67142 14051 ft 282 kts 178°
2026-04-25 22:32 -54.48600 -67.66933 13857 ft 273 kts 178°
2026-04-25 22:32 -54.50442 -67.66730 13794 ft 260 kts 178°
2026-04-25 22:32 -54.52216 -67.66535 13476 ft 256 kts 179°
2026-04-25 22:32 -54.53982 -67.66341 13167 ft 252 kts 179°
2026-04-25 22:33 -54.55704 -67.66150 12810 ft 247 kts 179°
2026-04-25 22:33 -54.57422 -67.65960 12426 ft 244 kts 179°
2026-04-25 22:33 -54.59095 -67.65775 12056 ft 241 kts 179°
2026-04-25 22:33 -54.60757 -67.65590 11706 ft 238 kts 179°
2026-04-25 22:34 -54.62394 -67.65410 11398 ft 234 kts 179°
2026-04-25 22:34 -54.63989 -67.65232 11069 ft 232 kts 180°
2026-04-25 22:34 -54.65609 -67.65055 10701 ft 231 kts 180°
2026-04-25 22:34 -54.67187 -67.64880 10346 ft 230 kts 180°
2026-04-25 22:35 -54.68785 -67.64699 9994 ft 229 kts 180°
2026-04-25 22:35 -54.70365 -67.64519 9644 ft 227 kts 180°
2026-04-25 22:35 -54.71922 -67.64345 9278 ft 226 kts 180°
2026-04-25 22:35 -54.73492 -67.64167 8864 ft 227 kts 180°
2026-04-25 22:36 -54.75034 -67.64000 8473 ft 222 kts 180°
2026-04-25 22:36 -54.76562 -67.63832 8028 ft 217 kts 181°
2026-04-25 22:36 -54.78038 -67.63671 7569 ft 213 kts 181°
2026-04-25 22:36 -54.79475 -67.63941 7059 ft 208 kts 205°
2026-04-25 22:37 -54.80631 -67.65384 6722 ft 206 kts 226°
2026-04-25 22:37 -54.81471 -67.67363 6451 ft 204 kts 241°
2026-04-25 22:37 -54.81846 -67.69726 6149 ft 208 kts 258°
2026-04-25 22:37 -54.81967 -67.72201 5848 ft 206 kts 259°
2026-04-25 22:38 -54.82072 -67.74666 5599 ft 202 kts 259°
2026-04-25 22:38 -54.82173 -67.77085 5521 ft 195 kts 259°
2026-04-25 22:38 -54.82264 -67.79328 5359 ft 183 kts 259°
2026-04-25 22:38 -54.82352 -67.81456 5172 ft 172 kts 258°
2026-04-25 22:39 -54.82431 -67.83419 5096 ft 152 kts 257°
2026-04-25 22:39 -54.82503 -67.85194 5094 ft 144 kts 256°
2026-04-25 22:39 -54.82598 -67.86912 5072 ft 143 kts 253°
2026-04-25 22:39 -54.82723 -67.88613 5008 ft 144 kts 254°
2026-04-25 22:40 -54.82836 -67.90337 4839 ft 144 kts 255°
2026-04-25 22:40 -54.82934 -67.92069 4619 ft 143 kts 256°
2026-04-25 22:40 -54.83014 -67.93774 4430 ft 142 kts 257°
2026-04-25 22:40 -54.83084 -67.95475 4231 ft 142 kts 257°
2026-04-25 22:41 -54.83148 -67.97187 4029 ft 142 kts 257°
2026-04-25 22:41 -54.83207 -67.98871 3830 ft 141 kts 257°
2026-04-25 22:41 -54.83264 -68.00566 3654 ft 139 kts 257°
2026-04-25 22:41 -54.83319 -68.02228 3446 ft 137 kts 257°
2026-04-25 22:42 -54.83374 -68.03857 3239 ft 137 kts 257°
2026-04-25 22:42 -54.83431 -68.05493 3043 ft 136 kts 258°
2026-04-25 22:42 -54.83488 -68.07149 2829 ft 136 kts 258°
2026-04-25 22:42 -54.83546 -68.08762 2615 ft 136 kts 259°
2026-04-25 22:43 -54.83605 -68.10414 2404 ft 136 kts 259°
2026-04-25 22:43 -54.83664 -68.12041 2197 ft 137 kts 259°
2026-04-25 22:43 -54.83725 -68.13678 1985 ft 137 kts 260°
2026-04-25 22:43 -54.83786 -68.15330 1758 ft 137 kts 260°
2026-04-25 22:44 -54.83847 -68.16982 1534 ft 136 kts 260°
2026-04-25 22:44 -54.83908 -68.18606 1312 ft 135 kts 261°
2026-04-25 22:44 -54.83969 -68.20216 1091 ft 135 kts 262°
2026-04-25 22:44 -54.84031 -68.21832 876 ft 134 kts 263°
2026-04-25 22:45 -54.84092 -68.23434 664 ft 133 kts 263°
2026-04-25 22:45 -54.84154 -68.25028 453 ft 132 kts 264°
2026-04-25 22:45 -54.84215 -68.26614 235 ft 132 kts 264°
2026-04-25 22:45 -54.84278 -68.28197 52 ft 129 kts 264°
2026-04-25 22:46 -54.84331 -68.29400 58 ft 60 kts 267°
2026-04-25 22:46 -54.84346 -68.29842 65 ft 29 kts 268°
2026-04-25 22:46 -54.84359 -68.30164 69 ft 24 kts 264°
2026-04-25 22:46 -54.84372 -68.30444 69 ft 21 kts 267°
2026-04-25 22:47 -54.84382 -68.30694 68 ft 20 kts 265°
2026-04-25 22:47 -54.84371 -68.30922 65 ft 18 kts 320°
2026-04-25 22:47 -54.84249 -68.30965 65 ft 17 kts 353°
2026-04-25 22:47 -54.84133 -68.30988 66 ft 15 kts 349°
2026-04-25 22:48 -54.84069 -68.31089 65 ft 9 kts 319°
2026-04-25 22:48 -54.84020 -68.31109 65 ft 0 kts 357°